Погода в Алдане

Погода в Алдане : погода сейчас, прогноз погоды и архив. Всё, что Вы хотите узнать о погоде в Алдане!

Хотите узнать прогноз погоды в Алдане? Тогда Вам сюда: Погода в Алдане

Поиск расширенной информации на нашем сайте:

Другие новости

Новости СМИ2

Главная страница сайта

Новости сайта

03.07.2017

Напоминаем, что на нашем специализированном сайте Метеоцентр.Азия вы можете получить высокодетализированные автоматические прогнозы погоды по пунктам России, СНГ и мира в авиационном формате (включающие направление и скорость ветра, видимость, явления погоды, количество и форму облачности, нижнюю и верхнюю границу облачности).

Рекомендуем: Цветы в шляпных коробках премиум букеты в шляпных коробках. 3

Погода в Алдане - сегодня

Время (UTC), дата Ветер
(°,м/с) 
Видим.   Явления Облачность Т
(°С)
Тd
(°С)
f(%) Тe
(°С)
Pmin
(гПа)
dP
(гПа)
Po
(мм)
O2
(г/м3)
Тmin Tmax R s Состояние
почвы
03 19.11.17 280 (З) 20000 м  {снег}  9/0 средняя, верхняя 
[Ac trans|Ci fib]
-26.7 -28.5 85 -27  1025.4  0.4  701  315           
06 19.11.17 260 (З) 20000 м  {ливн. осадки}  8/0 средняя, верхняя 
[Ac trans|Ci fib]
-26.4 -28.9 79 -27  1025  -0.2  700  314           
09 19.11.17 тихо ()   10 км  слаб. снег  10/0 средняя, верхняя 
[Ac trans|Cs]
-28.9 -30.7 84 -29  1026.1  0.1  700  317           
12 19.11.17 тихо ()   4000 м  слаб. снег  10/0 средняя 
[As op]
-27.9 -29.7 84 -28  1025.4  -0.3  700  316    -26.2  0.4     
15 19.11.17 тихо ()   4000 м  слаб. снег  10/0 средняя 
[As op]
-29.9 -31.7 84 -30  1025.2  -1  699  318           
18 19.11.17 тихо ()   10 км  слаб. снег  10/0 средняя, верхняя 
[Ac trans|Cs]
-30.5 -32.4 84 -31  1023.9  -1.3  698  319           
21 19.11.17 тихо ()   4000 м  слаб. снег  10/0 средняя, верхняя 
[Ac trans|Cs]
-29.3 -31.1 84 -29  1021.3  -2  697  316           
00 20.11.17 200 (Ю) 20000 м  слаб. снег  10/0 средняя, верхняя 
[Ac trans|Cs]
-29.1 -30.9 84 -30  1018.8  -2.1  695  315  -30.9    0.5  60  равномерный
сухой снег
100% 
03 20.11.17 220 (ЮЗ) 20000 м  {снег}  6/0 средняя, верхняя 
[Ac trans|Ci fib]
-24 -26.5 80 -27  1014.1  -2.5  694  308           
06 20.11.17 220 (ЮЗ) 20000 м  {снег}  8/0 средняя, верхняя 
[Ac trans|Ci fib]
-22.8 -25.3 80 -26  1011.7  -1.8  692  306           
09 20.11.17 тихо ()   20000 м  слаб. снег  10/0 верхняя 
[Cs]
-28.3 -30 85 -28  1012.6  -1.1  691  312           
12 20.11.17 210 (ЮЗ) 20000 м  {снег}  6/0 средняя, верхняя 
[Ac trans|Ci fib]
-28.8 -30.6 85 -29  1011.7  -1  691  313    -22.4  0.3     
15 20.11.17 210 (ЮЗ) 20000 м  слаб. снег  10/0 средняя, верхняя 
[Ac trans|Cs]
-27 -28.8 85 -30  1010.5  -0.5  690  310           
18 20.11.17 210 (ЮЗ) 10 км  слаб. снег  10/0 средняя, верхняя 
[Ac trans|Cs]
-27.5 -29.3 85 -28  1010.4  -0.2  690  311           
21 20.11.17 тихо ()   4000 м  слаб. снег  10/0 средняя, верхняя 
[Ac trans|Cs]
-25.2 -27.1 84 -25  1010.2  0.5  690  308           
00 21.11.17 200 (Ю) 10 км  слаб. снег  10/0 средняя, верхняя 
[Ac trans|Cs]
-24.4 -26.2 85 -25  1011.3  1.3  691  308  -29.1    0.3  60  равномерный
сухой снег
100% 
03 21.11.17 230 (ЮЗ) 20000 м  слаб. снег  10/0 средняя, верхняя 
[Ac trans|Cs]
-22.9 -24.8 84 -28  1011.7  0.9  692  306           
06 21.11.17 240 (ЮЗ) 4000 м  слаб. снег  10/3 600 м средняя, верхняя 
[Sc|Ac trans|Cs]
-22.6 -24.4 85 -27  1012.5  0.9  693  306           
09 21.11.17 230 (ЮЗ) 10 км  слаб. снег  10/4 600 м верхняя 
[Sc|Cs]
-23.5 -26 80 -27  1014.2  1.2  694  307           
12 21.11.17 240 (ЮЗ) 10 км  слаб. снег  10/0 средняя, верхняя 
[Ac trans|Cs]
-24.4 -26.9 80 -29  1014  -0.5  693  308    -22  0.3     
15 21.11.17 240 (ЮЗ) 3{12}  4000 м  слаб. снег  10/0 средняя 
[As op]
-23.2 -25.7 80 -28  1013  -0.4  693  307           
18 21.11.17 280 (З) 4000 м  слаб. снег  10/0 средняя 
[As op]
-22.8 -24.7 84 -26  1013.1  0.1  693  306           
21 21.11.17 270 (З) 10 км  слаб. снег  10/0 средняя 
[As op]
-23.6 -25.5 84 -27  1013.6  0.3  693  307           
00 22.11.17 240 (ЮЗ) 4000 м  слаб. снег  10/0 средняя 
[As op]
-23.4 -25.9 80 -28  1013.6  693  307  -24.5    59  равномерный
сухой снег
100% 
03 22.11.17 270 (З) 4000 м  слаб. снег  10/3 600 м средняя, верхняя 
[Sc|Ac trans|Cs]
-23.1 -25.7 79 -28  1014.2  0.7  694  307           
Время (UTC), дата Ветер
(°,м/с) 
Видим.   Явления Облачность Т
(°С)
Тd
(°С)
f(%) Тe
(°С)
Pmin
(гПа)
dP
(гПа)
Po
(мм)
O2
(г/м3)
Тmin Tmax R s Состояние
почвы

Для получения пояснительной информации подведите курсор к названию столбца.

ПОГОДА в Алдане - архив

Всё, что Вы хотите узнать о погоде в Алдане - удобно и подробно!

Выберите нужную дату (начиная с 1 января 2015* года) и нажмите кнопку "Найти".
Будут отображены архивные сводки погоды по пункту Алдан, начиная с указанной даты.


Отображать данные в формате CSV (для использования в таблицах Excel)


Внимание! Наш архив погоды предназначен исключительно для личного некоммерческого использования в познавательных целях. Если Вам необходимы официальные справки о состоянии погоды (для производственных, юридических, коммерческих и т.п. целей), обращайтесь в органы Росгидромета.

*Примечание: данная дата относится к архиву по метеостанциям СССР (Россия, СНГ, Балтия).
Архив по метеостанциям Зарубежной Европы и Азии (кроме Китая) хранится 10 дней, по другим регионам земного шара (Китай, Африка, Америка, Австралия, Океания) - 1 день.

Алдан - район местоположения метеостанции


Название, широта, долгота, высота метеостанции:
Алдан 58.6°ш. 125.4°д. 79 м над ур. моря [Российская Федерация]

Дополнительная информация

В oтличие oт бoльшинства пoгoдных сайтoв мы публикуем пoдрoбную метеoинфoрмацию в детальнoм прoфессиoнальнoм фoрмате.

Характеристики температуры и влажнoсти вoздуха измеряются на высoте 2 м в тени вдали oт зданий и деревьев.
Скoрoсть ветра измеряется на высoте 10 м (на урoвне рoста челoвека скoрoсть ветра ниже в 1.5-2 раза). Если метеoстанция нахoдится в гoрoде или в лесу, тo скoрoсть ветра занижена на 2-4 м/с пo сравнению с oткрытым местoм. Скoрoсть ветра над акватoриями крупных рек и oзёр, а также на вершинах хoлмoв на 2-5 м/с выше, чем в oбычных услoвиях.
Атмoсфернoе давление в разных тoчках местнoсти мoжет значительнo oтличаться oт давления на метеoстанции, в зависимoсти oт услoвий рельефа (при пoдъёме на 10 м давление пoнижается примернo на 1 мм рт.ст.).